Hannover, Germany

08:17 AM CEST am 01. Mai 2017 (GMT +0200)
Hannover

Wetter Verlauf für EDDV - April, 2017

Change the Weather History Date:

Freitag, April 21, 2017

  Actual Average Record
Temperature  
mittlereTemperatur 48 °F -  
Max. Temperatur 55 °F 61 °F 73 °F (2011)
Min.Temperatur 41 °F 43 °F 24 °F (1997)
Degree Days  
Heizgradtage 17    
Moisture  
Taupunkt 39 °F    
Average Humidity 67    
Maximum Humidity 82    
Minimum Humidity 57    
Niederschlag  
Niederschlag 0.00 inch 0.08 inch - ()
Luftdruck in Meereshöhe  
Luftdruck in Meereshöhe 30.30 inch    
Wind  
Windgeschwindigkeit 8 mph ()    
Max. Windgeschwindigkeit 17 mph    
Max Gust Speed 29 mph    
Sichtweite 6.2 Meilen    
Ereignisse Regen    
Averages and records for this station are not official NWS values.
T = Trace of Precipitation, MM = Missing Value Source: Averaged Metar Reports

Daily Weather History Graph

Daily Weather History Graph

Search for Another Location

Airport or City:

Trip Planner

Search our weather history database for the weather conditions in past years. The results will help you decide how hot, cold, wet, or windy it might be!

Date:

Astronomie

Apr. 21, 2017 Aufgang Untergang
Genaue Zeit 06:10 CEST 20:30 CEST
Bürgerliche Dämmerung 05:33 CEST 21:08 CEST
Nautische Dämmerung 04:45 CEST 21:55 CEST
Astronomische Dämmerung 03:50 CEST 22:51 CEST
Mond 04:09 CEST (4/21) 14:06 CEST (4/21)
Länge des sichtbaren Lichts 15h 35m
Tageslänge
14h 20m
Letztes Viertel, 30% of the Moon is Illuminated
Apr 21
Letztes Viertel
Apr 26
Neu
Mai 3
Erstes Viertel
Mai 10
Vollmond
Mai 19
Letztes Viertel

Hourly Weather History & Observations

Zeit (CEST) Temp. Windchill Taupunkt Feuchtigkeit Druck Sichtweite Wind Dir Windgeschwindigkeit Böengeschwindigkeit Precip Ereignisse Wetterzustand
12:20 AM 44.6 °F 41.4 °F 30.2 °F 57% 30.45 inch - West 5.8 mph - N/A   Heiter
12:50 AM 44.6 °F 41.4 °F 30.2 °F 57% 30.45 inch 6.2 mi West-Südwest 5.8 mph - N/A   Wolkig
1:20 AM 44.6 °F 41.4 °F 30.2 °F 57% 30.45 inch 6.2 mi West-Südwest 5.8 mph - N/A   Wolkig
1:50 AM 44.6 °F 42.2 °F 30.2 °F 57% 30.42 inch - West-Südwest 4.6 mph - N/A   Heiter
2:20 AM 44.6 °F 42.2 °F 32.0 °F 61% 30.42 inch - West 4.6 mph - N/A   Heiter
2:50 AM 44.6 °F 41.4 °F 32.0 °F 61% 30.42 inch - West-Südwest 5.8 mph - N/A   Heiter
3:20 AM 44.6 °F 41.4 °F 32.0 °F 61% 30.42 inch - West-Südwest 5.8 mph - N/A   Heiter
3:50 AM 44.6 °F 41.4 °F 32.0 °F 61% 30.39 inch - West-Südwest 5.8 mph - N/A   Heiter
4:20 AM 42.8 °F 39.3 °F 32.0 °F 66% 30.39 inch - West 5.8 mph - N/A   Heiter
4:50 AM 41.0 °F 37.1 °F 32.0 °F 70% 30.39 inch 6.2 mi West 5.8 mph - N/A   Teils Wolkig
5:20 AM 42.8 °F 39.3 °F 32.0 °F 66% 30.39 inch 6.2 mi West 5.8 mph - N/A   Teils Wolkig
5:50 AM 41.0 °F 38.0 °F 32.0 °F 70% 30.36 inch 6.2 mi Südwest 4.6 mph - N/A   Teils Wolkig
6:20 AM 42.8 °F 40.1 °F 33.8 °F 70% 30.36 inch 6.2 mi Südwest 4.6 mph - N/A   Wolkig
6:50 AM 42.8 °F 38.6 °F 33.8 °F 70% 30.36 inch 6.2 mi West 6.9 mph - N/A   Wolkig
7:20 AM 44.6 °F 41.4 °F 33.8 °F 66% 30.36 inch 6.2 mi West 5.8 mph - N/A   Wolkig
7:50 AM 44.6 °F 40.2 °F 35.6 °F 71% 30.36 inch 6.2 mi West 8.1 mph - N/A   Wolkig
8:20 AM 46.4 °F 41.9 °F 35.6 °F 66% 30.36 inch 6.2 mi West 9.2 mph - N/A   Wolkig
8:50 AM 46.4 °F 41.9 °F 35.6 °F 66% 30.36 inch 6.2 mi West-Südwest 9.2 mph - N/A   Wolkig
9:20 AM 46.4 °F 41.9 °F 37.4 °F 71% 30.36 inch 6.2 mi West 9.2 mph - N/A   Wolkig
9:50 AM 48.2 °F - 37.4 °F 66% 30.36 inch 5.6 mi West-Südwest 9.2 mph - N/A   Wolkig
10:20 AM 48.2 °F - 39.2 °F 71% 30.36 inch 5.6 mi West 10.4 mph - N/A   Wolkig
10:50 AM 50.0 °F - 39.2 °F 66% 30.33 inch 6.2 mi West-Südwest 12.7 mph - N/A   Wolkig
11:20 AM 50.0 °F - 41.0 °F 71% 30.33 inch 6.2 mi West 12.7 mph - N/A   Wolkig
11:50 AM 51.8 °F - 42.8 °F 71% 30.33 inch 6.2 mi West-Südwest 11.5 mph - N/A   Wolkig
12:20 PM 51.8 °F - 41.0 °F 67% 30.33 inch 6.2 mi West-Südwest 12.7 mph - N/A   Wolkig
12:50 PM 53.6 °F - 42.8 °F 67% 30.30 inch 6.2 mi West 12.7 mph - N/A   Wolkig
1:20 PM 55.4 °F - 42.8 °F 63% 30.30 inch 6.2 mi West-Südwest 10.4 mph - N/A   Wolkig
1:50 PM 55.4 °F - 42.8 °F 63% 30.30 inch 6.2 mi West 12.7 mph - N/A   Wolkig
2:20 PM 55.4 °F - 42.8 °F 63% 30.27 inch 6.2 mi West 15.0 mph - N/A   Wolkig
2:50 PM 55.4 °F - 42.8 °F 63% 30.27 inch 6.2 mi West-Südwest 10.4 mph - N/A   Wolkig
3:20 PM 55.4 °F - 42.8 °F 63% 30.24 inch 6.2 mi West-Südwest 13.8 mph - N/A   Wolkig
3:50 PM 55.4 °F - 42.8 °F 63% 30.24 inch 6.2 mi West-Südwest 11.5 mph - N/A   Wolkig
4:20 PM 55.4 °F - 44.6 °F 67% 30.21 inch 6.2 mi West-Südwest 12.7 mph - N/A   Wolkig
4:50 PM 55.4 °F - 44.6 °F 67% 30.21 inch 6.2 mi West-Südwest 15.0 mph 27.6 mph N/A   Wolkig
5:20 PM 53.6 °F - 44.6 °F 72% 30.21 inch 6.2 mi West-Südwest 16.1 mph - N/A Regen Leichter Regen
5:50 PM 53.6 °F - 44.6 °F 72% 30.18 inch 6.2 mi West-Südwest 12.7 mph - N/A Regen Leichter Regen
6:20 PM 53.6 °F - 44.6 °F 72% 30.18 inch 6.2 mi West 12.7 mph - N/A Regen Leichter Regen
6:50 PM 53.6 °F - 46.4 °F 77% 30.18 inch 6.2 mi West 15.0 mph - N/A Regen Leichte Regenschauer
7:20 PM 53.6 °F - 46.4 °F 77% 30.18 inch 6.2 mi West 12.7 mph - N/A   Wolkig
7:50 PM 53.6 °F - 46.4 °F 77% 30.18 inch 6.2 mi West 16.1 mph - N/A Regen Leichte Regenschauer
8:20 PM 51.8 °F - 42.8 °F 71% 30.18 inch 6.2 mi West-Nordwest 17.3 mph - N/A   Wolkig
8:50 PM 51.8 °F - 42.8 °F 71% 30.18 inch 6.2 mi West 16.1 mph - N/A   Wolkig
9:20 PM 51.8 °F - 41.0 °F 67% 30.18 inch 6.2 mi West 16.1 mph - N/A   Wolkig
9:50 PM 51.8 °F - 41.0 °F 67% 30.18 inch 6.2 mi West 17.3 mph - N/A   Wolkig
10:20 PM 51.8 °F - 41.0 °F 67% 30.15 inch 6.2 mi West 15.0 mph - N/A   Wolkig
10:50 PM 51.8 °F - 42.8 °F 71% 30.15 inch 6.2 mi West 15.0 mph - N/A Regen Leichter Regen
11:20 PM 50.0 °F - 42.8 °F 76% 30.15 inch 6.2 mi West 17.3 mph 28.8 mph N/A   Wolkig
11:50 PM 50.0 °F - 44.6 °F 82% 30.15 inch 6.2 mi West 16.1 mph 27.6 mph N/A Regen Leichter Regen